National Weather Service Raw Text Product

Displaying AFOS PIL: RWRIA Received: 2017-08-13 05:00 UTC


997 
ASUS43 KDMX 130506
RWRIA 

WEATHER ROUNDUP FOR IOWA
NATIONAL WEATHER SERVICE DES MOINES IA
1200 AM CDT SUN AUG 13 2017

NOTE: "FAIR" INDICATES FEW OR NO CLOUDS BELOW 12,000 FEET WITH NO
SIGNIFICANT WEATHER AND/OR OBSTRUCTIONS TO VISIBILITY.

* - THESE STATIONS ARE NOT NWS STATIONS...THUS NOT UNDER NWS
QUALITY CONTROL.  THEY ALSO DO NOT REPORT WEATHER SUCH 
AS PRECIPITATION OR FOG.  

IAZ001>003-012>014-020>022-031>034-043>046-130600-
   NORTHWEST IOWA
  
CITY           SKY/WX    TMP DP  RH WIND       PRES   REMARKS
CARROLL *      CLOUDY    63  61  94 SE6       30.04F                  
CHEROKEE *     CLOUDY    64  57  79 CALM      30.03R                  
DENISON *      CLOUDY    64  57  77 SE5       30.05F                  
LE MARS *      CLOUDY    68  57  68 SE7       30.01R                  
ORANGE CITY *  CLOUDY    66  61  82 CALM      30.03R                  
SHELDON *      CLOUDY    64  59  82 S5        30.02R                  
SIOUX CITY     CLOUDY    68  60  75 S8        30.01F                  
SPENCER        MOCLDY    66  56  70 SE8       30.05R                  
STORM LAKE *   CLOUDY    61  55  82 SE6       30.04F                  
$$
 
IAZ055>058-069>071-079>083-090>094-130600-
   SOUTHWEST IOWA
  
CITY           SKY/WX    TMP DP  RH WIND       PRES   REMARKS
ATLANTIC *     MOCLDY    61  59  94 CALM      30.04F                  
AUDUBON *      CLOUDY    61  57  88 CALM      30.06S                  
CLARINDA *       N/A     57  57 100 CALM      30.07F                  
COUNCIL BLFS * CLOUDY    66  57  72 CALM      30.04F                  
CRESTON *      MOCLDY    66  52  59 SE5       30.08R                  
HARLAN  *      CLOUDY    63  61  94 CALM      30.07F                  
LAMONI         PTCLDY    67  54  63 CALM      30.06S                  
RED OAK *      CLOUDY    61  59  94 CALM      30.05S                  
SHENANDOAH *     N/A     61  57  88 CALM      30.05S                  
$$
 
IAZ047>049-059>061-072>074-084-130600-
   CENTRAL IOWA
  
CITY           SKY/WX    TMP DP  RH WIND       PRES   REMARKS
AMES           CLOUDY    60  57  89 SE5       30.06R                  
ANKENY *       CLEAR     66  54  63 SE6       30.07S                  
BOONE *        CLOUDY    61  57  88 SE7       30.06R                  
CHARITON *     PTCLDY    64  55  72 SE7       30.07S                  
DES MOINES     MOCLDY    69  56  62 SE7       30.06R                  
GRINNELL*      CLEAR     60  54  79 E3        30.08S                  
KNOXVILLE *    PTCLDY    64  54  68 SE6       30.06R                  
MARSHALLTOWN   CLEAR     58  53  84 E6        30.07R                  
NEWTON *       CLOUDY    61  54  77 SE8       30.07S                  
PELLA *        PTCLDY    63  54  71 SE5       30.09R                  
PERRY *          N/A     63  60  91 E5        30.06R                  
$$
 
IAZ004>006-015-016-023>025-035-036-130600-
   NORTH CENTRAL IOWA
  
CITY           SKY/WX    TMP DP  RH WIND       PRES   REMARKS
ALGONA *       PTCLDY    64  55  72 SE6       30.07R                  
CLARION *      PTCLDY    63  54  72 SE10      30.07R                  
ESTHERVILLE    CLOUDY    61  59  93 SE6       30.04R                  
FORT DODGE *   CLOUDY    64  54  68 SE7       30.07R                  
MASON CITY     CLOUDY    56  49  77 SE3       30.09R                  
FOREST CITY *    N/A     59  52  77 CALM      30.08R                  
WEBSTER CITY * PTCLDY    59  55  88 SE5       30.05R                  
IOWA FALLS *     N/A     58  53  82 CALM      30.08R                  
$$

IAZ007>011-017>019-026>030-037>042-050>054-066-130600-
   NORTHEAST IOWA
  
CITY           SKY/WX    TMP DP  RH WIND       PRES   REMARKS
CEDAR RAPIDS   CLEAR     55  55 100 CALM      30.08R                  
CHARLES CITY * PTCLDY    57  54  88 SE5       30.08R                  
CLINTON *      CLEAR     59  56  89 CALM      30.08R                  
DECORAH *      CLEAR     57  52  82 CALM      30.06F                  
DUBUQUE        CLOUDY    56  53  90 CALM      30.09R                  
MONTICELLO *   CLEAR     55  54  94 CALM      30.07S                  
OELWEIN *      CLEAR     55  54  94 SE3       30.09R                  
WATERLOO       CLEAR     56  51  84 E3        30.06S                  
$$
 
IAZ064-065-067-068-078-130600-
   EAST CENTRAL IOWA
  
CITY           SKY/WX    TMP DP  RH WIND       PRES   REMARKS
DAVENPORT      CLEAR     54  53  97 CALM      30.10R                  
IOWA CITY      CLEAR     60  54  80 CALM      30.09S                  
MT. PLEASANT * CLEAR     58  53  83 E5        30.09R                  
MUSCATINE *    CLEAR     57  54  88 CALM      30.09R                  
QUAD CITIES    CLEAR     57  53  86 CALM      30.08R                  
$$
 
IAZ062-063-075>077-085>089-095>099-130600-
   SOUTHEAST IOWA
  
CITY           SKY/WX    TMP DP  RH WIND       PRES   REMARKS
BURLINGTON     CLEAR     64  56  75 E5        30.08R                  
FAIRFIELD *    PTCLDY    59  52  77 E5        30.08S                  
FORT MADISON * PTCLDY    59  55  88 CALM      30.10R                  
KEOKUK *       PTCLDY    64  55  72 E3        30.08R                  
OSKALOOSA *      N/A     58  53  83 SE5       30.09R                  
CENTERVILLE *    N/A     63  57  82 CALM      30.09S                  
OTTUMWA        CLEAR     61  55  81 E6        30.08R                  
WASHINGTON *   CLEAR     55  54  94 E3        30.09S                  
$$

ABBREVIATIONS USED IN REMARKS
   TC - TEMPERATURES IN CELSIUS
  WCI - WIND CHILL INDEX
   HX - HEAT INDEX
  VSB - VISIBILITY  
$$

  

775 
ASUS43 KDMX 130501
RWRIA 

WEATHER ROUNDUP FOR IOWA
NATIONAL WEATHER SERVICE DES MOINES IA
1200 AM CDT SUN AUG 13 2017

NOTE: "FAIR" INDICATES FEW OR NO CLOUDS BELOW 12,000 FEET WITH NO
SIGNIFICANT WEATHER AND/OR OBSTRUCTIONS TO VISIBILITY.

* - THESE STATIONS ARE NOT NWS STATIONS...THUS NOT UNDER NWS
QUALITY CONTROL.  THEY ALSO DO NOT REPORT WEATHER SUCH 
AS PRECIPITATION OR FOG.  

IAZ001>003-012>014-020>022-031>034-043>046-130600-
   NORTHWEST IOWA
  
CITY           SKY/WX    TMP DP  RH WIND       PRES   REMARKS
CARROLL *      CLOUDY    63  61  94 SE6       30.04F                  
CHEROKEE *     CLOUDY    64  57  79 CALM      30.03R                  
DENISON *      CLOUDY    64  57  77 SE5       30.05F                  
LE MARS *      CLOUDY    68  57  68 SE7       30.01R                  
ORANGE CITY *  CLOUDY    66  61  82 CALM      30.03R                  
SHELDON *      CLOUDY    64  59  82 S5        30.02R                  
SIOUX CITY     CLOUDY    68  60  75 S8        30.01F                  
SPENCER        MOCLDY    66  56  70 SE8       30.05R                  
STORM LAKE *   CLOUDY    61  55  82 SE6       30.04F                  
$$
 
IAZ055>058-069>071-079>083-090>094-130600-
   SOUTHWEST IOWA
  
CITY           SKY/WX    TMP DP  RH WIND       PRES   REMARKS
ATLANTIC *     MOCLDY    61  59  94 CALM      30.04F                  
AUDUBON *      CLOUDY    61  57  88 CALM      30.06S                  
CLARINDA *       N/A     57  57 100 CALM      30.07F                  
COUNCIL BLFS * CLOUDY    66  57  72 CALM      30.04F                  
CRESTON *      MOCLDY    66  52  59 SE5       30.08R                  
HARLAN  *      CLOUDY    63  61  94 CALM      30.07F                  
LAMONI         PTCLDY    67  54  63 CALM      30.06S                  
RED OAK *      CLOUDY    61  59  94 CALM      30.05S                  
SHENANDOAH *     N/A     61  57  88 CALM      30.05S                  
$$
 
IAZ047>049-059>061-072>074-084-130600-
   CENTRAL IOWA
  
CITY           SKY/WX    TMP DP  RH WIND       PRES   REMARKS
AMES           CLOUDY    60  57  89 SE5       30.06R                  
ANKENY *       CLEAR     66  54  63 SE6       30.07S                  
BOONE *        CLOUDY    61  57  88 SE7       30.06R                  
CHARITON *     PTCLDY    64  55  72 SE7       30.07S                  
DES MOINES     MOCLDY    69  56  62 SE7       30.06R                  
GRINNELL*      CLEAR     60  54  79 E3        30.08S                  
KNOXVILLE *    PTCLDY    64  54  68 SE6       30.06R                  
MARSHALLTOWN   CLEAR     58  53  84 E6        30.07R                  
NEWTON *       CLOUDY    61  54  77 SE8       30.07S                  
PELLA *        PTCLDY    63  54  71 SE5       30.09R                  
PERRY *          N/A     63  60  91 E5        30.06R                  
$$
 
IAZ004>006-015-016-023>025-035-036-130600-
   NORTH CENTRAL IOWA
  
CITY           SKY/WX    TMP DP  RH WIND       PRES   REMARKS
ALGONA *       PTCLDY    64  55  72 SE6       30.07R                  
CLARION *      PTCLDY    63  54  72 SE10      30.07R                  
ESTHERVILLE    CLOUDY    61  59  93 SE6       30.04R                  
FORT DODGE *   CLOUDY    64  54  68 SE7       30.07R                  
MASON CITY     CLOUDY    56  49  77 SE3       30.09R                  
FOREST CITY *    N/A     59  52  77 CALM      30.08R                  
WEBSTER CITY * PTCLDY    59  55  88 SE5       30.05R                  
IOWA FALLS *     N/A     58  53  82 CALM      30.08R                  
$$

IAZ007>011-017>019-026>030-037>042-050>054-066-130600-
   NORTHEAST IOWA
  
CITY           SKY/WX    TMP DP  RH WIND       PRES   REMARKS
CEDAR RAPIDS   CLEAR     55  55 100 CALM      30.08R                  
CHARLES CITY * PTCLDY    57  54  88 SE5       30.08R                  
CLINTON *      CLEAR     59  56  89 CALM      30.08R                  
DECORAH *      CLEAR     57  52  82 CALM      30.06F                  
DUBUQUE        CLOUDY    56  53  90 CALM      30.09R                  
MONTICELLO *   CLEAR     55  54  94 CALM      30.07S                  
OELWEIN *      CLEAR     55  54  94 SE3       30.09R                  
WATERLOO       CLEAR     56  51  84 E3        30.06S                  
$$
 
IAZ064-065-067-068-078-130600-
   EAST CENTRAL IOWA
  
CITY           SKY/WX    TMP DP  RH WIND       PRES   REMARKS
DAVENPORT      CLEAR     54  53  97 CALM      30.10R                  
IOWA CITY      CLEAR     60  54  80 CALM      30.09S                  
MUSCATINE *    CLEAR     57  54  88 CALM      30.09R                  
QUAD CITIES    CLEAR     57  53  86 CALM      30.08R                  
$$
 
IAZ062-063-075>077-085>089-095>099-130600-
   SOUTHEAST IOWA
  
CITY           SKY/WX    TMP DP  RH WIND       PRES   REMARKS
BURLINGTON     CLEAR     64  56  75 E5        30.08R                  
FAIRFIELD *    PTCLDY    59  52  77 E5        30.08S                  
FORT MADISON * PTCLDY    59  55  88 CALM      30.10R                  
KEOKUK *       PTCLDY    64  55  72 E3        30.08R                  
OSKALOOSA *      N/A     58  53  83 SE5       30.09R                  
OTTUMWA        CLEAR     61  55  81 E6        30.08R                  
WASHINGTON *   CLEAR     55  54  94 E3        30.09S                  
$$

ABBREVIATIONS USED IN REMARKS
   TC - TEMPERATURES IN CELSIUS
  WCI - WIND CHILL INDEX
   HX - HEAT INDEX
  VSB - VISIBILITY  
$$